Regional Weather Roundup
Issued by NWS

Home | Current Version | Previous Version | Graphics & Text | Print | Product List | Glossary On
Versions: 1 2 3 4 5 6 7 8 9 10 11 12 13 14 15 16 17 18 19 20 21 22 23 24 25 26 27 28 29 30 31 32 33 34 35 36 37 38 39 40 41 42 43 44 45 46 47 48 49 50
000
ASUS43 KIND 251159
RWRIN

WEATHER ROUNDUP FOR INDIANA
NATIONAL WEATHER SERVICE INDIANAPOLIS IN
700 AM EST SAT FEB 25 2017

NOTE: "FAIR" INDICATES FEW OR NO CLOUDS BELOW 12,000 FEET WITH NO
SIGNIFICANT WEATHER AND/OR OBSTRUCTIONS TO VISIBILITY.

* - STATION DOES NOT REPORT WEATHER SUCH AS PRECIPITATION OR FOG.

+ - STATION NOT QUALITY CONTROLLED BY THE NATIONAL WEATHER SERVICE.
    USE DATA WITH CAUTION...ESPECIALLY DEWPOINT AND RELATIVE
    HUMIDITY OBSERVATIONS.

INZ001>003-010>013-019-020-251300-
NORTHWEST INDIANA

CITY           SKY/WX    TMP DP  RH WIND       PRES   REMARKS
GARY /AIRPORT/ MOCLDY    30  21  69 W17G32    29.70R WCI  18
KNOX *+        CLOUDY    32   9  37 W14G25    29.67R WCI  22
MICHIGAN CITY+ FLURRIES  30  27  86 W13       29.67R WCI  20
RENSSELAER +   CLOUDY    32  27  80 W14G24    29.71R WCI  22

$$

LMZ046-743>745-251300-
SOUTHERN LAKE MICHIGAN

STATION/POSITION TIME  TEMP    WIND        PRES    WAVE
                       AIR SEA DIR/SP/G            HT
                 (UTC) (F)     (DEG/KT/KT) (MB)    (FT)
BURNS HARBOR     1140   30     290/ 22/ 27 1004.7R
MICHIGAN CITY    1130   30     270/ 24/ 26   N/A

$$

INZ004-005-014>016-021>024-251300-
NORTH CENTRAL INDIANA

CITY           SKY/WX    TMP DP  RH WIND       PRES   REMARKS
GOSHEN         FLURRIES  32  23  69 W18G28    29.62R WCI  20
6HR MIN TEMP:  32; 6HR MAX TEMP:  40; 6HR PCP: TRACE;

SOUTH BEND     CLOUDY    30  22  72 W14       29.63R WCI  19
6HR MIN TEMP:  30; 6HR MAX TEMP:  37; 6HR PCP: TRACE;


$$

INZ006>009-017-018-025>027-251300-
NORTHEAST INDIANA

CITY           SKY/WX    TMP DP  RH WIND       PRES   REMARKS
ANGOLA *+      CLOUDY    34  30  86 W15       29.58R WCI  24
FORT WAYNE     LGT SNOW  34  31  88 W18       29.61R FOG     WCI  23
6HR MIN TEMP:  34; 6HR MAX TEMP:  42; 6HR PCP:  0.01;

KENDALLVILLE + CLOUDY    33  27  79 W16G26    29.59R WCI  23

$$

INZ028-029-035-036-043>045-051>053-251300-
WEST CENTRAL INDIANA

CITY           SKY/WX    TMP DP  RH WIND       PRES   REMARKS
LAFAYETTE      LGT SNOW  30  27  88 W15G26    29.73R FOG     WCI  19
6HR MIN TEMP:  30; 6HR MAX TEMP:  41; 6HR PCP: TRACE;

TERRE HAUTE    CLOUDY    31  23  72 W17G26    29.83R WCI  19
6HR MIN TEMP:  30; 6HR MAX TEMP:  43; 6HR PCP: TRACE;


$$

INZ030>032-037>040-046>048-054>057-064-065-251300-
CENTRAL INDIANA

CITY           SKY/WX    TMP DP  RH WIND       PRES   REMARKS
COLUMBUS       CLOUDY    36  27  69 SW16      29.77
GREENWOOD *+   CLOUDY    33  27  77 W20G29    29.75R WCI  22
6HR MIN TEMP:  33; 6HR MAX TEMP:  44;

INDIANAPOLIS   CLOUDY    32  26  78 W26G35    29.75R WCI  18
6HR MIN TEMP:  32; 6HR MAX TEMP:  41; 6HR PCP: TRACE;

-EAGLE CREEK   MIX PCPN  32  26  78 W13G24    29.73R WCI  22
6HR MIN TEMP:  32; 6HR MAX TEMP:  42; 6HR PCP: TRACE;

KOKOMO +       LGT SNOW  32  30  92 W20       29.68R FOG     WCI  20
6HR MIN TEMP:  32; 6HR MAX TEMP:  43; 6HR PCP:  0.01;

MT COMFORT *+  CLOUDY    32  28  86 W23G32    29.72R WCI  19
SHELBYVILLE    CLOUDY    36  27  69 W17       29.73R
6HR MIN TEMP:  36; 6HR MAX TEMP:  46;


$$

INZ033-034-041-042-049-050-058-059-251300-
EAST CENTRAL INDIANA

CITY           SKY/WX    TMP DP  RH WIND       PRES   REMARKS
MUNCIE         CLOUDY    35  30  82 SW15G26   29.67R WCI  25
6HR MIN TEMP:  35; 6HR MAX TEMP:  45; 6HR PCP: TRACE;


$$

INZ060-061-067>069-081>083-085>088-251300-
SOUTHWEST INDIANA

CITY           SKY/WX    TMP DP  RH WIND       PRES   REMARKS
EVANSVILLE     CLOUDY    33  19  56 W21G30    29.92R WCI  21
6HR MIN TEMP:  33; 6HR MAX TEMP:  45;

HUNTINGBURG *+ CLOUDY    33  22  63 W18       29.88R WCI  22
6HR MIN TEMP:  33; 6HR MAX TEMP:  45;


$$

INZ062-063-066-070>080-084-089>092-251300-
SOUTH CENTRAL AND SOUTHEAST INDIANA

CITY           SKY/WX    TMP DP  RH WIND       PRES   REMARKS
BLOOMINGTON    CLOUDY    32  23  69 W13G24    29.79R WCI  22
6HR MIN TEMP:  32; 6HR MAX TEMP:  43;

MADISON *+     CLOUDY    36  25  64 W18G26    29.80R

$$





USA.gov is the U.S. government's official web portal to all federal, state and local government web resources and services.